DW4221 Weather Reports


time (UTC)temp
F
wind
direction
speed
knots
gust
knots
rain 1hr
in
rain 24hr
in
rain mn
in
humidity
%
barometer
mb
20260504044549 54 219 2.6 7.8 0.00 0.00 0.00 43 995.5
20260504043102 55 218 4.3 9.6 0.00 0.00 0.00 43 995.9
20260504041551 55 190 2.6 9.6 0.00 0.00 0.00 42 996.1
20260504040104 55 227 2.6 10.4 0.00 0.00 0.00 43 996.6
20260504034610 55 213 3.5 7.8 0.00 0.01 0.00 42 997.0
20260504033100 55 185 2.6 10.4 0.00 0.01 0.00 43 997.5
20260504031552 54 210 2.6 9.6 0.00 0.01 0.00 43 998.0
20260504030055 53 201 1.7 8.7 0.00 0.01 0.00 44 998.3
20260504024554 53 217 1.7 6.1 0.00 0.02 0.00 45 998.5
20260504023055 54 227 1.7 7.8 0.00 0.02 0.00 43 998.8
20260504021557 54 196 1.7 4.3 0.00 0.02 0.00 44 999.3
20260504020104 55 205 0.0 2.6 0.00 0.02 0.00 42 999.3
20260504014557 56 205 0.0 4.3 0.00 0.02 0.00 41 999.3
20260504013053 56 219 0.9 2.6 0.00 0.02 0.00 40 999.7
20260504011644 57 238 0.9 3.5 0.00 0.02 0.00 41 1000.2
20260504011550 57 238 0.9 3.5 0.00 0.02 0.00 41 1000.2
20260504010051 58 0 0.9 3.5 0.00 0.02 0.00 40 1000.4
20260504004551 59 199 0.0 6.1 0.00 0.02 0.00 38 1000.6
20260504003051 60 0 1.7 7.8 0.00 0.02 0.00 36 1000.9
20260504001553 61 241 1.7 7.8 0.00 0.02 0.00 37 1001.1
20260504000056 61 270 1.7 7.8 0.00 0.02 0.00 35 1001.5
20260503234552 61 270 1.7 6.1 0.00 0.02 0.00 35 1001.6
20260503233053 62 290 1.7 6.1 0.00 0.02 0.00 33 1001.8
20260503231552 61 187 0.9 7.8 0.00 0.02 0.00 36 1002.3
20260503230105 61 256 0.9 10.4 0.00 0.02 0.00 34 1002.2
20260503224559 62 296 1.7 12.2 0.00 0.02 0.00 35 1002.4
20260503223051 63 254 0.9 9.6 0.00 0.02 0.00 33 1002.3
20260503221552 63 194 3.5 9.6 0.00 0.02 0.00 33 1002.8
20260503220055 63 360 3.5 12.2 0.00 0.02 0.00 33 1002.8
20260503214551 63 235 3.5 8.7 0.00 0.02 0.00 32 1002.8
20260503213101 65 80 1.7 7.8 0.00 0.02 0.00 32 1002.9
20260503211609 64 197 2.6 7.8 0.00 0.02 0.00 33 1003.0
20260503210050 64 339 2.6 9.6 0.00 0.02 0.00 34 1003.1
20260503204552 62 81 5.2 14.8 0.00 0.02 0.00 33 1003.5
20260503203052 63 167 2.6 9.6 0.00 0.02 0.00 33 1003.6
20260503201552 62 238 3.5 9.6 0.00 0.02 0.00 34 1003.8
20260503200106 62 268 2.6 9.6 0.00 0.02 0.00 34 1003.8
20260503194601 62 347 3.5 11.3 0.00 0.02 0.00 33 1004.0
20260503193058 61 257 1.7 9.6 0.00 0.02 0.00 34 1004.2
20260503191555 61 248 3.5 13.0 0.00 0.02 0.00 36 1004.4
20260503190051 60 296 2.6 14.8 0.00 0.02 0.00 31 1004.5
20260503184601 61 252 3.5 13.0 0.00 0.02 0.00 30 1004.9
20260503183050 60 0 5.2 13.9 0.00 0.02 0.00 28 1005.0
20260503181609 61 273 2.6 9.6 0.00 0.02 0.00 31 1005.0
20260503180111 59 88 3.5 11.3 0.00 0.02 0.00 31 1005.2
20260503174558 59 34 4.3 19.1 0.00 0.02 0.00 29 1005.5
20260503173102 58 281 2.6 11.3 0.00 0.02 0.00 32 1005.6
20260503171548 59 351 2.6 13.0 0.00 0.02 0.00 34 1005.7
20260503081553 40 0 0.0 0.0 0.00 0.02 0.00 95 1006.0
20260503071600 44 0 0.0 0.0 0.00 0.02 0.00 94 1006.5
20260503070110 45 0 0.0 0.0 0.00 0.02 0.00 95 1006.8